VK4HIT-13 Weather Reports


time (UTC)temp
F
wind
direction
speed
knots
gust
knots
rain 1hr
in
rain 24hr
in
rain mn
in
humidity
%
barometer
mb
20260510011421 72 28 0.9 6.1 0.00 0.00 0.00 60 1026.4
20260510010921 72 17 0.9 4.3 0.00 0.00 0.00 60 1026.5
20260510010421 71 16 0.9 1.7 0.00 0.00 0.00 62 1026.6
20260510005921 71 13 1.7 4.3 0.00 0.00 0.00 62 1026.7
20260510005421 71 17 1.7 7.8 0.00 0.00 0.00 61 1026.7
20260510004921 71 22 0.9 4.3 0.00 0.00 0.00 62 1026.7
20260510004421 71 21 0.9 3.5 0.00 0.00 0.00 62 1026.8
20260510003921 71 19 0.9 4.3 0.00 0.00 0.00 62 1026.8
20260510003421 70 19 0.0 1.7 0.00 0.00 0.00 64 1026.9
20260510002921 69 22 0.0 1.7 0.00 0.00 0.00 64 1027.0
20260510002421 69 49 0.0 0.0 0.00 0.00 0.00 63 1027.0
20260510001921 68 59 0.0 0.0 0.00 0.00 0.00 63 1027.2
20260510001421 68 57 0.0 1.7 0.00 0.00 0.00 64 1027.2
20260510000921 67 97 0.0 0.9 0.00 0.00 0.00 64 1027.2
20260510000421 66 79 0.0 1.7 0.00 0.00 0.00 66 1027.1
20260509235921 66 76 0.0 0.0 0.00 0.00 0.00 65 1027.3
20260509235421 65 80 0.0 0.9 0.00 0.00 0.00 64 1027.4
20260509234921 65 84 0.0 1.7 0.00 0.00 0.00 66 1027.4
20260509234421 65 84 0.0 1.7 0.00 0.00 0.00 65 1027.5
20260509233921 65 107 0.0 3.5 0.00 0.00 0.00 66 1027.4
20260509233421 64 102 0.0 0.9 0.00 0.00 0.00 69 1027.4
20260509232921 63 125 0.0 0.9 0.00 0.00 0.00 69 1027.6
20260509232421 63 90 0.0 1.7 0.00 0.00 0.00 69 1027.6
20260509231921 62 111 0.0 0.9 0.00 0.00 0.00 72 1027.6
20260509231421 62 82 0.0 0.9 0.00 0.00 0.00 73 1027.5
20260509230921 61 86 0.0 0.9 0.00 0.00 0.00 73 1027.5
20260509230421 60 100 0.0 0.9 0.00 0.00 0.00 74 1027.3
20260509225921 60 96 0.0 0.9 0.00 0.00 0.00 75 1027.2
20260509225421 59 86 0.0 0.9 0.00 0.00 0.00 78 1027.0
20260509224921 58 141 0.0 0.9 0.00 0.00 0.00 79 1026.9
20260509224421 57 133 0.0 0.9 0.00 0.00 0.00 81 1026.7
20260509223921 56 118 0.0 0.9 0.00 0.00 0.00 84 1026.8
20260509223421 55 42 0.0 0.9 0.00 0.00 0.00 84 1026.7
20260509222921 55 45 0.0 0.9 0.00 0.00 0.00 85 1026.8
20260509222421 54 40 0.0 0.9 0.00 0.00 0.00 86 1026.7
20260509221921 53 43 0.0 0.9 0.00 0.00 0.00 87 1026.6
20260509221421 53 41 0.0 0.9 0.00 0.00 0.00 87 1026.5
20260509220921 52 46 0.0 0.9 0.00 0.00 0.00 89 1026.4
20260509220421 51 49 0.0 0.9 0.00 0.00 0.00 90 1026.2
20260509215921 51 51 0.0 0.9 0.00 0.00 0.00 90 1026.3
20260509215421 50 53 0.0 0.9 0.00 0.00 0.00 90 1026.2
20260509214921 49 53 0.0 0.9 0.00 0.00 0.00 90 1026.2
20260509214421 49 54 0.0 0.9 0.00 0.00 0.00 89 1026.3
20260509213921 49 54 0.0 0.9 0.00 0.00 0.00 89 1026.2
20260509213421 49 54 0.0 0.9 0.00 0.00 0.00 89 1026.1
20260509212921 49 54 0.0 0.9 0.00 0.00 0.00 89 1026.2
20260509212421 49 54 0.0 0.9 0.00 0.00 0.00 89 1026.2
20260509211921 49 54 0.0 0.9 0.00 0.00 0.00 89 1026.1
20260509211421 50 54 0.0 0.9 0.00 0.00 0.00 89 1026.1
20260509210921 50 54 0.0 0.9 0.00 0.00 0.00 89 1026.0
20260509210421 50 54 0.0 0.9 0.00 0.00 0.00 89 1025.8
20260509205921 50 54 0.0 0.9 0.00 0.00 0.00 89 1025.7
20260509205421 50 54 0.0 0.9 0.00 0.00 0.00 89 1025.5
20260509204921 50 54 0.0 0.9 0.00 0.00 0.00 89 1025.5
20260509204421 50 53 0.0 0.9 0.00 0.00 0.00 89 1025.4
20260509203921 50 53 0.0 0.9 0.00 0.00 0.00 89 1025.3
20260509203421 50 52 0.0 0.9 0.00 0.00 0.00 90 1025.2
20260509202921 49 53 0.0 0.9 0.00 0.00 0.00 89 1025.3
20260509202421 49 53 0.0 0.9 0.00 0.00 0.00 89 1025.2
20260509201921 49 53 0.9 1.7 0.00 0.00 0.00 90 1025.1
20260509201421 49 53 0.0 1.7 0.00 0.00 0.00 89 1025.1
20260509200921 49 53 0.0 0.9 0.00 0.00 0.00 89 1025.0
20260509200421 49 53 0.0 0.9 0.00 0.00 0.00 89 1025.0
20260509195921 49 53 0.0 1.7 0.00 0.00 0.00 89 1024.9
20260509195421 49 53 0.9 1.7 0.00 0.00 0.00 89 1025.0
20260509194921 49 53 0.9 1.7 0.00 0.00 0.00 89 1024.9
20260509194421 49 53 0.9 2.6 0.00 0.00 0.00 89 1024.9
20260509193921 49 52 0.0 0.9 0.00 0.00 0.00 89 1024.8
20260509193421 49 52 0.0 0.9 0.00 0.00 0.00 89 1024.9
20260509192921 49 52 0.0 0.9 0.00 0.00 0.00 89 1024.8
20260509192421 49 52 0.0 0.9 0.00 0.00 0.00 88 1024.9
20260509191921 49 52 0.0 0.9 0.00 0.00 0.00 88 1024.8
20260509191421 50 52 0.0 0.9 0.00 0.00 0.00 88 1024.9
20260509190921 50 52 0.0 0.9 0.00 0.00 0.00 89 1024.9
20260509190421 50 52 0.0 0.9 0.00 0.00 0.00 88 1024.8
20260509185921 49 52 0.0 0.9 0.00 0.00 0.00 88 1024.7
20260509185421 50 53 0.0 0.9 0.00 0.00 0.00 87 1024.6
20260509184921 50 53 0.0 0.9 0.00 0.00 0.00 87 1024.5
20260509184421 50 53 0.0 0.9 0.00 0.00 0.00 86 1024.4
20260509183921 50 53 0.0 0.9 0.00 0.00 0.00 87 1024.6
20260509183421 50 53 0.0 0.9 0.00 0.00 0.00 87 1024.6
20260509182921 51 53 0.0 0.9 0.00 0.00 0.00 86 1024.4
20260509182421 51 53 0.0 0.9 0.00 0.00 0.00 86 1024.4
20260509181921 51 53 0.0 0.9 0.00 0.00 0.00 85 1024.5
20260509181421 51 53 0.0 0.9 0.00 0.00 0.00 85 1024.5
20260509180921 51 53 0.0 0.9 0.00 0.00 0.00 85 1024.6
20260509180421 52 52 0.0 0.9 0.00 0.00 0.00 85 1024.5
20260509175921 52 52 0.0 0.9 0.00 0.00 0.00 85 1024.4
20260509175421 52 52 0.0 0.9 0.00 0.00 0.00 85 1024.5
20260509174921 52 52 0.0 0.9 0.00 0.00 0.00 84 1024.5
20260509174421 52 51 0.0 0.9 0.00 0.00 0.00 84 1024.4
20260509173922 52 51 0.0 0.9 0.00 0.00 0.00 84 1024.4
20260509173421 53 51 0.0 0.9 0.00 0.00 0.00 84 1024.2
20260509172921 53 51 0.0 0.9 0.00 0.00 0.00 84 1024.2
20260509172421 53 51 0.0 0.9 0.00 0.00 0.00 85 1024.1
20260509171921 53 51 0.0 0.9 0.00 0.00 0.00 84 1024.2
20260509171421 53 51 0.0 0.9 0.00 0.00 0.00 84 1024.1
20260509170921 53 51 0.0 0.9 0.00 0.00 0.00 85 1024.1
20260509170421 52 50 0.0 0.9 0.00 0.00 0.00 85 1024.1
20260509165921 52 50 0.0 0.9 0.00 0.00 0.00 85 1024.1
20260509165422 52 50 0.0 0.9 0.00 0.00 0.00 85 1024.2
20260509164922 52 49 0.0 0.9 0.00 0.00 0.00 84 1024.2
20260509164422 52 49 0.0 0.9 0.00 0.00 0.00 84 1024.2
20260509163922 53 48 0.0 0.9 0.00 0.00 0.00 84 1024.2
20260509163422 53 48 0.0 0.9 0.00 0.00 0.00 84 1024.2
20260509162922 52 48 0.9 1.7 0.00 0.00 0.00 84 1024.3
20260509162422 53 48 0.9 2.6 0.00 0.00 0.00 84 1024.3
20260509161922 52 48 1.7 1.7 0.00 0.00 0.00 85 1024.3
20260509161422 52 48 2.6 3.5 0.00 0.00 0.00 85 1024.3
20260509160922 52 37 3.5 4.3 0.00 0.00 0.00 85 1024.3
20260509160422 52 46 3.5 4.3 0.00 0.00 0.00 84 1024.3
20260509155922 53 49 2.6 5.2 0.00 0.00 0.00 83 1024.3
20260509155422 53 49 3.5 4.3 0.00 0.00 0.00 82 1024.3
20260509154922 53 36 2.6 6.1 0.00 0.00 0.00 83 1024.3
20260509154422 53 49 0.9 5.2 0.00 0.00 0.00 81 1024.3
20260509153922 53 45 0.9 1.7 0.00 0.00 0.00 82 1024.2
20260509153422 53 26 1.7 3.5 0.00 0.00 0.00 82 1024.2
20260509152922 53 47 0.9 3.5 0.00 0.00 0.00 80 1024.1
20260509152422 54 170 0.0 0.9 0.00 0.00 0.00 80 1024.0
20260509151922 54 165 0.0 0.9 0.00 0.00 0.00 79 1024.1
20260509151422 54 146 0.0 0.9 0.00 0.00 0.00 78 1024.2
20260509150922 55 144 0.0 0.9 0.00 0.00 0.00 78 1024.2
20260509150422 55 138 0.0 0.9 0.00 0.00 0.00 78 1024.3
20260509145922 55 140 0.9 1.7 0.00 0.00 0.00 78 1024.4
20260509145422 55 146 1.7 2.6 0.00 0.00 0.00 78 1024.3
20260509144922 55 144 1.7 2.6 0.00 0.00 0.00 79 1024.4
20260509144422 55 152 0.9 3.5 0.00 0.00 0.00 78 1024.4
20260509143922 55 164 0.0 2.6 0.00 0.00 0.00 77 1024.5
20260509143422 56 38 0.0 0.9 0.00 0.00 0.00 76 1024.5
20260509142922 56 36 0.9 1.7 0.00 0.00 0.00 75 1024.6
20260509142422 57 34 0.0 1.7 0.00 0.00 0.00 75 1024.6
20260509141922 57 33 0.0 0.9 0.00 0.00 0.00 74 1024.6
20260509141422 57 32 0.9 0.9 0.00 0.00 0.00 74 1024.6
20260509140922 57 32 0.9 1.7 0.00 0.00 0.00 74 1024.5
20260509140422 57 32 0.0 2.6 0.00 0.00 0.00 73 1024.5
20260509135922 58 30 0.0 0.9 0.00 0.00 0.00 72 1024.6
20260509135422 58 19 0.0 0.9 0.00 0.00 0.00 71 1024.6
20260509134922 59 130 0.0 0.9 0.00 0.00 0.00 71 1024.8
20260509134422 59 134 0.0 0.9 0.00 0.00 0.00 70 1024.8
20260509133922 59 128 0.0 0.9 0.00 0.00 0.00 70 1024.9
20260509133422 59 128 0.0 0.9 0.00 0.00 0.00 70 1024.8
20260509132922 60 128 0.0 0.9 0.00 0.00 0.00 70 1024.9
20260509132422 60 31 0.0 0.9 0.00 0.00 0.00 70 1024.9
20260509131922 60 32 0.0 0.9 0.00 0.00 0.00 69 1024.8
20260509131422 60 31 0.0 0.9 0.00 0.00 0.00 69 1024.9
20260509130922 60 30 0.0 0.9 0.00 0.00 0.00 70 1024.9
20260509130422 59 30 0.0 0.9 0.00 0.00 0.00 71 1024.9
20260509125922 59 30 0.0 0.9 0.00 0.00 0.00 71 1024.9
20260509125422 59 30 0.0 0.9 0.00 0.00 0.00 70 1024.8
20260509124922 60 20 0.0 0.9 0.00 0.00 0.00 70 1024.8
20260509124422 60 121 0.0 0.9 0.00 0.00 0.00 70 1024.7
20260509123922 60 126 0.0 0.9 0.00 0.00 0.00 70 1024.8
20260509123422 60 129 0.0 0.9 0.00 0.00 0.00 70 1024.7
20260509122922 60 128 0.0 0.9 0.00 0.00 0.00 70 1024.8
20260509122422 60 130 0.0 0.9 0.00 0.00 0.00 69 1024.8
20260509121922 60 132 0.0 0.9 0.00 0.00 0.00 70 1024.7
20260509121422 60 128 0.9 0.9 0.00 0.00 0.00 70 1024.7
20260509120922 60 117 0.9 2.6 0.00 0.00 0.00 70 1024.8
20260509120422 60 113 1.7 2.6 0.00 0.00 0.00 70 1024.8
20260509115922 60 111 1.7 3.5 0.00 0.00 0.00 70 1024.8
20260509115422 60 111 0.9 1.7 0.00 0.00 0.00 68 1024.8
20260509114922 62 71 0.9 1.7 0.00 0.00 0.00 65 1024.8
20260509114422 63 22 0.9 1.7 0.00 0.00 0.00 64 1024.8
20260509113922 63 22 1.7 2.6 0.00 0.00 0.00 64 1024.8
20260509113422 63 27 1.7 3.5 0.00 0.00 0.00 64 1024.8
20260509112922 63 24 1.7 3.5 0.00 0.00 0.00 63 1024.7
20260509112422 63 28 1.7 3.5 0.00 0.00 0.00 64 1024.8
20260509111922 63 24 1.7 2.6 0.00 0.00 0.00 63 1024.7
20260509111422 63 28 1.7 3.5 0.00 0.00 0.00 63 1024.8
20260509110922 63 28 1.7 3.5 0.00 0.00 0.00 64 1024.7
20260509110422 63 23 2.6 3.5 0.00 0.00 0.00 64 1024.7
20260509105922 63 26 2.6 3.5 0.00 0.00 0.00 64 1024.7
20260509105422 64 23 1.7 3.5 0.00 0.00 0.00 64 1024.7
20260509104922 63 23 1.7 2.6 0.00 0.00 0.00 65 1024.7
20260509104422 63 22 1.7 2.6 0.00 0.00 0.00 65 1024.6
20260509103922 63 21 1.7 2.6 0.00 0.00 0.00 66 1024.6
20260509103422 63 28 1.7 2.6 0.00 0.00 0.00 66 1024.7
20260509102922 63 30 1.7 2.6 0.00 0.00 0.00 65 1024.6
20260509102422 63 22 1.7 2.6 0.00 0.00 0.00 65 1024.7
20260509101922 64 26 1.7 3.5 0.00 0.00 0.00 65 1024.6
20260509101422 64 26 0.9 2.6 0.00 0.00 0.00 65 1024.6
20260509100922 64 26 0.9 1.7 0.00 0.00 0.00 64 1024.5
20260509100422 64 26 0.9 1.7 0.00 0.00 0.00 64 1024.4
20260509095922 64 22 0.0 1.7 0.00 0.00 0.00 64 1024.4
20260509095422 65 14 0.0 1.7 0.00 0.00 0.00 63 1024.3
20260509094922 65 14 0.0 0.9 0.00 0.00 0.00 61 1024.3
20260509094422 65 14 0.0 1.7 0.00 0.00 0.00 61 1024.2
20260509093922 65 15 0.0 1.7 0.00 0.00 0.00 62 1024.2
20260509093422 65 13 0.0 0.0 0.00 0.00 0.00 62 1024.1
20260509092922 65 16 0.0 0.0 0.00 0.00 0.00 62 1024.0
20260509092422 65 20 0.0 0.0 0.00 0.00 0.00 62 1023.9
20260509091922 66 10 0.9 1.7 0.00 0.00 0.00 62 1023.8
20260509091422 66 98 0.9 2.6 0.00 0.00 0.00 62 1023.9
20260509090922 65 103 0.0 1.7 0.00 0.00 0.00 61 1023.8
20260509090422 66 22 0.0 0.9 0.00 0.00 0.00 61 1023.7
20260509085922 66 18 0.0 1.7 0.00 0.00 0.00 61 1023.7
20260509085422 66 22 0.0 0.0 0.00 0.00 0.00 60 1023.7
20260509084922 66 21 0.0 0.0 0.00 0.00 0.00 59 1023.5
20260509084423 67 22 0.0 0.0 0.00 0.00 0.00 58 1023.4
20260509083922 67 22 0.9 1.7 0.00 0.00 0.00 58 1023.1
20260509083422 67 13 0.9 2.6 0.00 0.00 0.00 58 1023.0
20260509082922 67 11 0.9 2.6 0.00 0.00 0.00 57 1023.0
20260509082422 67 24 0.9 3.5 0.00 0.00 0.00 56 1022.9
20260509081922 67 15 0.9 3.5 0.00 0.00 0.00 56 1022.8
20260509081422 67 19 0.9 3.5 0.00 0.00 0.00 56 1022.7
20260509080922 67 28 0.9 1.7 0.00 0.00 0.00 55 1022.7
20260509080422 68 22 0.0 1.7 0.00 0.00 0.00 55 1022.7
20260509075922 68 12 0.0 0.0 0.00 0.00 0.00 55 1022.6
20260509075422 68 12 0.0 0.0 0.00 0.00 0.00 54 1022.6
20260509074922 68 9 0.0 0.0 0.00 0.00 0.00 54 1022.6
20260509074422 69 9 0.0 0.0 0.00 0.00 0.00 53 1022.5
20260509073922 69 9 0.0 0.9 0.00 0.00 0.00 53 1022.6
20260509073422 69 15 0.0 0.0 0.00 0.00 0.00 52 1022.5
20260509072922 69 15 0.9 1.7 0.00 0.00 0.00 52 1022.4
20260509072422 70 73 0.9 3.5 0.00 0.00 0.00 52 1022.4
20260509071922 70 28 0.0 1.7 0.00 0.00 0.00 51 1022.4
20260509071422 70 5 0.9 1.7 0.00 0.00 0.00 51 1022.4
20260509070922 71 15 0.9 1.7 0.00 0.00 0.00 50 1022.4
20260509070422 71 76 0.9 1.7 0.00 0.00 0.00 50 1022.2
20260509065922 71 18 1.7 2.6 0.00 0.00 0.00 49 1022.1
20260509065422 72 59 0.9 3.5 0.00 0.00 0.00 48 1022.0
20260509064922 72 0 0.9 2.6 0.00 0.00 0.00 47 1021.9
20260509064422 72 9 0.9 3.5 0.00 0.00 0.00 47 1021.9
20260509063922 72 57 1.7 1.7 0.00 0.00 0.00 47 1021.8
20260509063422 72 17 1.7 4.3 0.00 0.00 0.00 46 1021.7
20260509062922 73 13 1.7 4.3 0.00 0.00 0.00 46 1021.7
20260509062422 73 11 1.7 3.5 0.00 0.00 0.00 46 1021.7
20260509061922 72 17 2.6 4.3 0.00 0.00 0.00 46 1021.6
20260509061422 73 15 2.6 4.3 0.00 0.00 0.00 46 1021.5
20260509060922 73 11 2.6 6.1 0.00 0.00 0.00 46 1021.6
20260509060422 73 19 2.6 7.0 0.00 0.00 0.00 46 1021.4
20260509055922 73 17 2.6 6.1 0.00 0.00 0.00 46 1021.3
20260509055422 73 19 2.6 7.0 0.00 0.00 0.00 45 1021.4
20260509054922 73 17 3.5 6.1 0.00 0.00 0.00 44 1021.3
20260509054422 73 18 4.3 7.8 0.00 0.00 0.00 44 1021.4
20260509053923 74 24 3.5 9.6 0.00 0.00 0.00 44 1021.4
20260509053422 74 23 2.6 7.0 0.00 0.00 0.00 44 1021.3
20260509052922 74 24 2.6 6.1 0.00 0.00 0.00 44 1021.3
20260509052422 75 19 1.7 7.0 0.00 0.00 0.00 44 1021.3
20260509051922 75 59 0.9 4.3 0.00 0.00 0.00 44 1021.3
20260509051423 75 66 0.0 2.6 0.00 0.00 0.00 45 1021.2
20260509050923 74 63 0.0 1.7 0.00 0.00 0.00 45 1021.2
20260509050423 74 11 1.7 1.7 0.00 0.00 0.00 44 1021.3
20260509045923 74 22 1.7 7.0 0.00 0.00 0.00 44 1021.2
20260509045423 74 24 0.9 6.1 0.00 0.00 0.00 44 1021.2
20260509044923 74 13 0.0 1.7 0.00 0.00 0.00 43 1021.2
20260509044423 74 21 0.9 0.0 0.00 0.00 0.00 43 1021.1
20260509043923 74 16 0.9 4.3 0.00 0.00 0.00 44 1021.2
20260509043423 74 24 0.9 3.5 0.00 0.00 0.00 42 1021.2
20260509042923 74 20 0.9 1.7 0.00 0.00 0.00 43 1021.2
20260509042423 75 37 0.9 5.2 0.00 0.00 0.00 42 1021.3
20260509041923 74 32 0.9 3.5 0.00 0.00 0.00 41 1021.3
20260509041423 74 23 1.7 4.3 0.00 0.00 0.00 43 1021.3
20260509040923 75 24 0.9 5.2 0.00 0.00 0.00 43 1021.3
20260509040423 74 61 0.0 1.7 0.00 0.00 0.00 45 1021.3
20260509035923 74 20 0.9 1.7 0.00 0.00 0.00 45 1021.3
20260509035423 74 68 0.9 4.3 0.00 0.00 0.00 46 1021.3
20260509034923 74 24 0.9 2.6 0.00 0.00 0.00 46 1021.3
20260509034423 74 0 0.9 2.6 0.00 0.00 0.00 46 1021.3
20260509033923 74 33 0.9 2.6 0.00 0.00 0.00 45 1021.3
20260509033423 74 18 0.0 1.7 0.00 0.00 0.00 45 1021.4
20260509032923 74 15 0.9 1.7 0.00 0.00 0.00 45 1021.3
20260509032423 74 11 0.9 7.8 0.00 0.00 0.00 45 1021.6
20260509031923 74 22 0.9 6.1 0.00 0.00 0.00 44 1021.6
20260509031423 74 21 0.0 3.5 0.00 0.00 0.00 46 1021.6
20260509030923 73 42 0.0 0.0 0.00 0.00 0.00 46 1021.6
20260509030423 73 17 0.9 1.7 0.00 0.00 0.00 47 1021.7
20260509025923 72 14 0.9 6.1 0.00 0.00 0.00 46 1021.8
20260509025423 72 29 0.9 6.1 0.00 0.00 0.00 47 1021.9
20260509024923 73 28 1.7 8.7 0.00 0.00 0.00 47 1022.0
20260509024423 72 77 3.5 7.0 0.00 0.00 0.00 47 1022.0
20260509023923 72 19 2.6 9.6 0.00 0.00 0.00 47 1022.1
20260509023423 72 26 2.6 7.0 0.00 0.00 0.00 48 1022.1
20260509022923 72 28 3.5 9.6 0.00 0.00 0.00 49 1022.1
20260509022423 72 31 1.7 7.8 0.00 0.00 0.00 48 1022.2
20260509021923 72 18 2.6 2.6 0.00 0.00 0.00 49 1022.4
20260509021423 72 25 2.6 7.0 0.00 0.00 0.00 48 1022.4
20260509020923 73 30 1.7 7.8 0.00 0.00 0.00 48 1022.5
20260509020423 72 18 3.5 6.1 0.00 0.00 0.00 48 1022.6
20260509015923 71 25 4.3 11.3 0.00 0.00 0.00 48 1022.6
20260509015423 72 27 2.6 7.8 0.00 0.00 0.00 49 1022.6
20260509014923 72 22 2.6 7.0 0.00 0.00 0.00 48 1022.7
20260509014423 72 11 1.7 5.2 0.00 0.00 0.00 48 1022.6
20260509013923 72 33 1.7 5.2 0.00 0.00 0.00 48 1022.8
20260509013423 71 84 2.6 3.5 0.00 0.00 0.00 49 1022.8
20260509012923 71 17 3.5 7.0 0.00 0.00 0.00 50 1022.9
20260509012423 70 34 3.5 7.8 0.00 0.00 0.00 51 1022.9
20260509011923 70 34 3.5 8.7 0.00 0.00 0.00 49 1022.9